Location: Mason Neck State Park
(38.6428°N, 77.1981°W)
Time: 16:37:01
(UTC-04:00)

Daily predictions for brighter satellites

Satellite Brightness Start Highest point End
(mag) Time Altitude Azimuth Time Altitude Azimuth Time Altitude Azimuth
Cosmos 1933 Rocket 3.6 20:45:29 10° S 20:49:49 85° W 20:54:12 10° N
Cosmos 1933 3.6 20:48:56 10° N 20:52:58 75° W 20:56:57 10° S
Cosmos 1939 Rocket 3.5 20:49:36 10° SE 20:53:30 42° ENE 20:57:25 10° N
Cosmos 1862 Rocket 3.7 20:50:50 10° N 20:55:20 86° W 20:59:49 10° S
Spot 2 Rocket 3.7 20:51:13 10° SSE 20:56:20 82° WSW 21:01:28 10° NNW
Cosmos 1408 4.3 20:54:54 10° SE 20:57:16 16° E 20:59:39 10° NE
ISS -3.2 20:56:26 10° WSW 20:59:39 62° NW 21:02:52 10° NE
Resurs 01 Rocket 2.4 20:59:12 10° S 21:03:31 55° W 21:07:54 10° NNW
NOSS 3-2 (C) 4.1 20:59:50 10° SW 21:05:45 63° NW 21:12:16 10° NNE
Tiangong 2 1.3 21:02:55 10° WNW 21:06:06 65° SSW 21:09:02 12° ESE
Cosmos 2082 Rocket 4.2 21:02:11 10° NW 21:06:55 28° WSW 21:11:38 10° SSW
Cosmos 1900 4.5 21:01:54 10° NNW 21:07:06 78° ENE 21:12:13 10° SSE
Meteor 2-3 Rocket 3.8 21:04:48 10° S 21:10:31 84° E 21:16:13 10° N
CZ-4B DEB 3.6 21:09:38 12° SE 21:11:55 28° ENE 21:14:29 10° NNE
Cosmos 2346 Rocket 4.4 21:07:43 10° S 21:13:45 82° E 21:19:50 10° N
Cosmos 1825 3.3 21:10:57 10° SE 21:14:03 25° E 21:17:10 10° NE
Meteor 1-26 Rocket 4.4 21:09:37 10° NNW 21:15:17 80° W 21:21:03 10° S
Okean 1-7 3.7 21:11:32 10° N 21:15:39 37° ENE 21:19:23 12° SE
CENTAUR R/B 2.5 21:10:52 10° SSW 21:16:35 55° ESE 21:23:04 10° NE
Cosmos 2344 4.0 21:13:23 10° S 21:20:21 38° ESE 21:27:38 10° NE
SPOT 5 4.5 21:17:37 12° ESE 21:21:15 23° ENE 21:25:17 10° NNE
Cosmos 1782 3.6 21:17:45 10° NNE 21:21:24 33° ENE 21:24:10 15° SE
Shenzhou-11 Module 3.1 21:19:22 10° W 21:22:12 34° SSW 21:24:15 16° SSE
Aureole 1 4.5 21:20:22 10° SSW 21:23:21 73° WNW 21:26:47 10° NNE
Envisat 3.4 21:18:24 10° S 21:23:25 66° WSW 21:28:30 10° NNW
Cosmos 372 Rocket 4.3 21:19:09 10° S 21:23:56 41° ESE 21:28:44 10° NNE
SL-19 R/B 4.5 21:19:52 10° SSE 21:25:35 88° WSW 21:31:47 10° NNW
H-2A ROCKET BODY 3.1 21:27:17 10° SW 21:29:40 20° SSE 21:32:06 15° SE
Cosmos 1703 Rocket 3.5 21:28:15 10° N 21:32:41 90° ESE 21:37:02 10° S
DNEPR-1 R/B 3.8 21:27:34 10° SSW 21:32:57 71° ESE 21:37:31 10° NE
Cosmos 1943 Rocket 2.2 21:27:36 10° S 21:33:04 58° ESE 21:38:31 10° NNE
Cosmos 1892 4.2 21:30:04 10° SSW 21:33:40 38° W 21:37:16 10° N
Cosmos 1125 Rocket 3.4 21:33:50 10° S 21:39:02 72° ESE 21:44:15 10° NNE
Cosmos 1862 4.2 21:38:56 21° SE 21:40:40 30° E 21:44:09 10° NNE
Cosmos 1733 Rocket 4.2 21:40:35 21° ESE 21:42:02 25° E 21:45:34 10° NE
Helios 1B rocket 2.7 21:39:14 10° N 21:43:20 69° WNW 21:47:23 10° SSW
Cosmos 2084 3.5 21:43:50 10° NW 21:47:38 60° WSW 21:50:04 21° SSE
NOAA 11 4.2 21:44:20 17° SSE 21:48:38 70° ENE 21:54:06 10° N
Cosmos 2263 4.3 21:42:55 10° SSW 21:48:42 82° WNW 21:54:28 10° NNE
Cosmos 1869 Rocket 3.9 21:45:34 10° SSW 21:49:51 65° W 21:54:12 10° N
Cosmos 1340 3.1 21:46:25 10° N 21:50:05 44° ENE 21:51:33 29° SE
Lacrosse 4 Rocket 2.2 21:48:16 10° NNW 21:52:33 42° ENE 21:54:34 26° ESE
SAR-Lupe-4 3.6 21:52:14 21° S 21:54:31 75° WSW 21:58:07 10° NNW
Cosmos 2369 Rocket 3.3 21:53:09 10° SW 21:58:35 48° WNW 22:04:05 10° NNE
SL-08 RB Rocket 4.1 22:00:57 29° SE 22:02:57 47° ENE 22:07:25 10° N
YAOGAN 6 4.1 22:00:37 10° SSW 22:03:58 34° W 22:07:21 10° NNW
Cosmos 158 Rocket 3.8 22:02:46 10° NNW 22:07:41 87° WSW 22:10:13 29° SSE
Cosmos 1606 2.9 22:04:29 10° NNW 22:08:14 66° W 22:10:13 26° S
Cosmos 1833 4.3 22:03:14 10° NNW 22:08:58 63° ENE 22:11:43 31° SE
Cosmos 2221 Rocket 4.5 22:07:33 10° NNW 22:11:49 46° W 22:15:21 14° SSW
H-2A R/B 2.4 22:11:04 31° SE 22:13:23 51° ENE 22:18:32 10° N
MetOp-B 4.2 22:14:45 25° S 22:17:59 79° WSW 22:23:22 10° NNW
GPS 2-04 Rocket1 3.2 22:15:30 10° W 22:18:45 37° SSW 22:18:45 37° SSW
ATLAS 5 CENTAUR R/B 2.4 22:13:33 10° NNW 22:19:40 88° ENE 22:22:52 33° SSE
Lacrosse 5 rocket 3.9 22:17:16 10° W 22:19:57 19° NW 22:22:42 10° NNE
Cosmos 1674 Rocket 3.9 22:16:28 10° N 22:20:36 43° E 22:21:11 40° ESE
Landsat 7 4.5 22:21:54 34° ESE 22:22:59 39° ENE 22:27:24 10° N
ERS-1 Rocket 3.7 22:23:37 20° SSW 22:26:53 50° W 22:31:47 10° NNW
OAO 3 Copernicus 4.3 22:24:38 10° WSW 22:29:33 56° S 22:30:29 48° SE
Cosmos 1656 Rocket 3.5 22:25:33 18° SSW 22:29:37 77° ESE 22:35:09 10° NNE
BREEZE-M DEB (TANK) 4.0 22:27:39 10° NW 22:31:21 59° NE 22:40:24 20° ESE
ARGOS 3.3 22:28:52 30° S 22:31:34 72° WSW 22:36:57 10° NNW
H-2A R/B 3.7 22:33:43 19° ENE 22:33:43 19° ENE 22:36:32 10° NNE
Nadezhda 4 Rocket 3.9 22:30:13 24° S 22:34:08 86° E 22:40:19 10° N
Cosmos 1092 Rocket 4.0 22:31:56 37° SSE 22:34:17 60° E 22:40:19 10° NNE
Meteor 1-27 Rocket 3.8 22:29:00 10° NNW 22:34:44 76° W 22:37:24 33° S
Okean 3 4.2 22:31:52 10° N 22:35:35 37° ENE 22:35:35 37° ENE
IGS 5A 4.4 22:36:31 32° ENE 22:36:31 32° ENE 22:40:10 10° N
ISS -0.6 22:34:57 10° NW 22:36:39 13° NNW 22:38:22 10° NNE
Terra 2.4 22:37:35 38° E 22:38:07 39° ENE 22:42:33 10° N
USA 215 3.2 22:37:58 37° SE 22:40:51 89° NE 22:47:27 10° NW
YAOGAN 11 4.4 22:40:30 44° SSW 22:41:48 66° WSW 22:46:18 10° NNW
Cosmos 1908 Rocket 3.5 22:55:35 74° E 22:55:35 74° E 22:59:58 10° N
Cosmos 1437 4.1 22:54:05 10° N 22:56:09 37° N 22:56:09 37° N
Intercosmos 25 Rocket 4.2 22:51:37 10° NNW 22:58:19 67° W 22:59:26 50° SSW
SPOT 5 3.9 22:56:52 31° SSW 22:58:57 46° W 23:04:03 10° NNW
Milstar 3 3.4 22:55:36 10° WSW 23:05:01 41° S 23:05:33 41° S
Cosmos 2251 Rocket 3.3 23:01:59 10° NNW 23:07:15 83° ENE 23:07:41 74° SE
Okean 2 Rocket 4.4 23:08:46 29° NE 23:08:46 29° NE 23:11:27 10° NNE
CENTAUR R/B 4.4 23:02:18 10° W 23:07:38 29° NW 23:13:35 10° NNE
Cosmos 2227 Rocket 3.6 23:04:24 10° N 23:09:01 25° NE 23:10:00 24° ENE
DMSP B5D2-2 4.2 23:04:21 10° N 23:09:32 69° WNW 23:11:06 44° SW
SPOT 1/Viking Rocket 4.3 23:10:32 38° SW 23:11:50 46° W 23:16:50 10° NNW
Cosmos 2219 3.1 23:10:50 10° NNW 23:16:37 81° ENE 23:17:12 72° SE
Spot 4 4.4 23:17:07 47° ENE 23:17:07 47° ENE 23:21:26 10° N
Meteor 1-14 Rocket 4.2 23:17:48 61° SSW 23:18:54 87° W 23:24:45 10° N
deb Chang Zheng 4 4.4 23:16:37 10° NNE 23:19:47 43° NE 23:19:47 43° NE
CZ-4 R/B 4.3 23:16:51 10° NNE 23:20:28 49° NE 23:20:28 49° NE
Cosmos 1812 3.8 23:17:55 10° N 23:20:33 41° N 23:20:33 41° N
Cosmos 1782 Rocket 4.0 23:23:54 57° NNE 23:23:54 57° NNE 23:27:25 10° N
Cosmos 2195 Rocket 4.5 23:21:49 54° SSW 23:23:24 82° W 23:29:46 10° N
SME Rocket 4.3 23:22:43 56° SE 23:24:19 78° ENE 23:33:45 10° NNW
GEOS 3 Rocket 3.5 23:30:20 86° ENE 23:30:21 86° NE 23:35:36 10° NNW
Lacrosse 4 Rocket 3.7 23:27:58 10° WNW 23:30:54 17° WSW 23:30:55 17° WSW
ATLAS CENTAUR R/B 2.7 23:39:00 35° NW 23:39:00 35° NW 23:42:18 10° NNE
Cosmos 1655 Rocket 3.8 23:42:10 74° SSW 23:42:45 86° W 23:49:03 10° N
Cosmos 405 Rocket 4.5 23:39:56 10° NNW 23:41:56 30° NNW 23:41:56 30° NNW
Cosmos 1975 Rocket 3.9 23:41:56 10° NNW 23:45:23 50° NW 23:45:23 50° NW
Cosmos 1867 4.5 23:47:23 10° NW 23:51:55 38° W 23:51:55 38° W
Cosmos 2026 Rocket 4.5 23:51:36 46° WSW 23:52:53 54° W 23:59:00 10° N
H-2A R/B 4.1 23:51:42 18° WSW 23:53:01 19° W 23:56:45 10° NW
Meteor 1-18 Rocket 4.4 23:47:45 10° NNW 23:53:27 66° W 23:53:31 66° W
